Location: Linz
(48.3300°N, 14.3000°E)
Time: 19:56:23
(UTC+01:00)

N. Korean satellite - Pass Details

Date: 14 November 2017
Orbit: 460 x 514 km, 97.2° (Epoch: 20 November)

Event Time Altitude Azimuth Distance (km) Brightness Sun altitude
Rises 06:17:00 0° 22° (NNE) 2,590 10.3 -8.8°
Reaches altitude 10° 06:19:16 10° 34° (NE) 1,711 9.6 -8.4°
Maximum altitude 06:22:31 29° 96° (E) 960 9.0 -7.9°
Drops below altitude 10° 06:25:46 10° 157° (SSE) 1,720 10.0 -7.4°
Sets 06:28:04 0° 169° (S) 2,607 10.7 -7.0°
